Weather History for Indianapolis, IN

Change the Weather History Date:

Saturday, August 3, 2013

  Actual Average (KEYE) Record (KEYE)
Temperature  
Mean Temperature 70 °F 75 °F  
Max Temperature 80 °F 83 °F 93 °F (2002)
Min Temperature 61 °F 66 °F 59 °F (1999)
Degree Days  
Heating Degree Days 0 0  
Month to date heating degree days 0  
Since 1 June heating degree days 15  
Since 1 July heating degree days 1  
Cooling Degree Days 6 10  
Month to date cooling degree days 30  
Year to date cooling degree days 666  
Since 1 June cooling degree days 582  
Growing Degree Days 20 (Base 50)    
Moisture  
Dew Point 62 °F    
Average Humidity 73    
Maximum Humidity 90    
Minimum Humidity 45    
Precipitation  
Precipitation 0.90 in 0.09 in 1.50 in (2003)
Month to date precipitation 0.26  
Year to date precipitation 25.72  
Sea Level Pressure  
Sea Level Pressure 30.02 in    
Wind  
Wind Speed 5 mph (NNW)    
Max Wind Speed 12 mph    
Max Gust Speed 17 mph    
Visibility 9 miles    
Events Rain , Thunderstorm    
T = Trace of Precipitation, MM = Missing Value Source: NWS Daily Summary

Daily Weather History Graph

Daily Weather History Graph

Search for Another Location

Airport:

Trip Planner

Search our weather history database for the weather conditions in past years. The results will help you decide how hot, cold, wet, or windy it might be!

Date:

Astronomy

Aug. 03, 2013 Rise Set
Actual Time 6:45 AM EDT 8:56 PM EDT
Civil Twilight 6:15 AM EDT 9:26 PM EDT
Nautical Twilight 5:38 AM EDT 10:03 PM EDT
Astronomical Twilight 4:57 AM EDT 10:43 PM EDT
Moon 3:54 AM EDT (8/3) 6:38 PM EDT (8/3)
Length of Visible Light 15h 11m
Length of Day
14h 10m
Waning Crescent, 9% of the Moon is Illuminated
Aug 3
Waning Crescent
Aug 6
New
Aug 14
First Quarter
Aug 20
Full
Aug 28
Last Quarter

Hourly Weather History & Observations

Time (EDT) Temp. Heat Index Dew Point Humidity Pressure Visibility Wind Dir Wind Speed Gust Speed Precip Events Conditions
12:15 AM 71.6 °F - 62.6 °F 73% 29.97 in 10.0 mi SW 6.9 mph - N/A   Overcast
12:35 AM 71.6 °F - 62.2 °F 72% 29.98 in 10.0 mi WSW 6.9 mph - N/A   Overcast
12:55 AM 71.4 °F - 62.6 °F 74% 29.98 in 10.0 mi WSW 5.8 mph - N/A Rain Light Rain
1:15 AM 70.2 °F - 63.1 °F 78% 29.98 in 10.0 mi WSW 4.6 mph - N/A Rain Light Rain
1:35 AM 69.8 °F - 63.5 °F 80% 29.98 in 10.0 mi WSW 4.6 mph - N/A Rain Rain
1:55 AM 69.1 °F - 63.7 °F 83% 29.99 in 10.0 mi West 4.6 mph - 0.01 in Rain , Thunderstorm Rain
2:15 AM 68.9 °F - 64.2 °F 85% 29.99 in 7.0 mi NW 6.9 mph - 0.05 in Rain Rain
2:35 AM 68.0 °F - 64.0 °F 87% 29.99 in 3.0 mi West 6.9 mph - 0.24 in Rain Rain
2:55 AM 67.5 °F - 63.7 °F 88% 29.98 in 7.0 mi West 4.6 mph - 0.29 in Rain Rain
3:15 AM 67.5 °F - 63.9 °F 88% 29.99 in 4.0 mi WSW 9.2 mph - 0.08 in Rain Rain
3:35 AM 67.1 °F - 63.5 °F 88% 29.99 in 3.0 mi West 3.5 mph - 0.35 in Rain Heavy Rain
3:55 AM 67.1 °F - 63.5 °F 88% 29.98 in 3.0 mi Calm Calm - 0.45 in Rain Rain
4:15 AM 67.1 °F - 63.7 °F 89% 29.97 in 3.0 mi Calm Calm - 0.05 in Rain Heavy Rain
4:35 AM 67.1 °F - 63.7 °F 89% 29.97 in 4.0 mi Calm Calm - 0.11 in Rain Rain
4:55 AM 67.1 °F - 63.9 °F 89% 29.97 in 4.0 mi Calm Calm - 0.15 in Rain Light Rain
5:15 AM 66.9 °F - 63.7 °F 89% 29.97 in 10.0 mi Calm Calm - N/A   Light Drizzle
5:35 AM 66.7 °F - 63.7 °F 90% 29.96 in 7.0 mi Calm Calm - N/A   Light Drizzle
5:55 AM 66.7 °F - 63.7 °F 90% 29.97 in 5.0 mi Calm Calm - N/A   Overcast
6:15 AM 67.1 °F - 63.9 °F 89% 29.97 in 5.0 mi Calm Calm - N/A   Overcast
6:35 AM 67.1 °F - 63.9 °F 89% 29.98 in 7.0 mi Calm Calm - N/A   Overcast
6:55 AM 67.1 °F - 63.9 °F 89% 29.98 in 5.0 mi WSW 4.6 mph - N/A   Overcast
7:15 AM 67.1 °F - 63.9 °F 89% 29.98 in 3.0 mi WNW 3.5 mph - N/A   Overcast
7:35 AM 67.1 °F - 64.0 °F 90% 29.99 in 5.0 mi WNW 3.5 mph - N/A   Overcast
7:55 AM 67.3 °F - 64.4 °F 90% 29.99 in 4.0 mi NW 3.5 mph - N/A   Overcast
8:15 AM 67.5 °F - 64.6 °F 90% 29.99 in 5.0 mi NNW 3.5 mph - N/A   Overcast
8:35 AM 67.6 °F - 64.6 °F 90% 29.99 in 7.0 mi Calm Calm - N/A   Overcast
8:55 AM 68.2 °F - 65.1 °F 90% 30.00 in 10.0 mi NW 3.5 mph - N/A   Overcast
9:15 AM 68.4 °F - 65.3 °F 90% 30.00 in 10.0 mi NNW 3.5 mph - N/A   Overcast
9:35 AM 68.9 °F - 65.5 °F 89% 30.01 in 10.0 mi North 5.8 mph - N/A   Overcast
9:55 AM 69.1 °F - 65.3 °F 88% 30.01 in 10.0 mi North 5.8 mph - N/A   Overcast
10:15 AM 69.1 °F - 64.9 °F 87% 30.00 in 10.0 mi North 6.9 mph - N/A   Overcast
10:35 AM 70.7 °F - 64.6 °F 81% 30.00 in 10.0 mi North 6.9 mph - N/A   Overcast
10:55 AM 70.7 °F - 64.2 °F 80% 30.01 in 10.0 mi North 6.9 mph - N/A   Overcast
11:15 AM 71.6 °F - 64.2 °F 77% 30.02 in 10.0 mi NNE 4.6 mph - N/A   Overcast
11:35 AM 72.1 °F - 63.7 °F 75% 30.03 in 10.0 mi NNE 6.9 mph - N/A   Overcast
11:55 AM 72.1 °F - 63.7 °F 75% 30.03 in 10.0 mi NNE 3.5 mph - N/A   Overcast
12:15 PM 73.6 °F - 64.0 °F 72% 30.05 in 10.0 mi NNE 3.5 mph - N/A   Overcast
12:35 PM 73.9 °F - 64.2 °F 72% 30.05 in 10.0 mi Calm Calm - N/A   Mostly Cloudy
12:55 PM 75.2 °F - 64.0 °F 68% 30.05 in 10.0 mi NE 3.5 mph - N/A   Mostly Cloudy
1:15 PM 74.8 °F - 63.1 °F 67% 30.05 in 10.0 mi NNW 3.5 mph - N/A   Mostly Cloudy
1:35 PM 77.2 °F - 62.6 °F 61% 30.04 in 10.0 mi ENE 3.5 mph - N/A   Scattered Clouds
1:55 PM 78.3 °F - 63.5 °F 60% 30.05 in 10.0 mi NNE 4.6 mph - N/A   Scattered Clouds
2:15 PM 76.5 °F - 62.8 °F 62% 30.05 in 10.0 mi North 4.6 mph - N/A   Mostly Cloudy
2:35 PM 78.4 °F - 61.5 °F 56% 30.05 in 10.0 mi NNW 5.8 mph - N/A   Mostly Cloudy
2:55 PM 79.2 °F - 61.0 °F 54% 30.05 in 10.0 mi NNW 5.8 mph - N/A   Scattered Clouds
3:15 PM 79.7 °F - 61.0 °F 53% 30.05 in 10.0 mi NW 5.8 mph - N/A   Scattered Clouds
3:35 PM 79.7 °F - 60.6 °F 52% 30.04 in 10.0 mi NNW 4.6 mph - N/A   Scattered Clouds
3:55 PM 79.7 °F - 60.8 °F 52% 30.03 in 10.0 mi North 4.6 mph - N/A   Clear
4:15 PM 80.2 °F 81.0 °F 59.9 °F 50% 30.04 in 10.0 mi NNE 5.8 mph - N/A   Clear
4:35 PM 80.4 °F 81.1 °F 59.7 °F 49% 30.03 in 10.0 mi North 5.8 mph - N/A   Clear
4:55 PM 80.8 °F 81.4 °F 59.9 °F 49% 30.03 in 10.0 mi NW 6.9 mph - N/A   Scattered Clouds
5:15 PM 79.9 °F - 61.2 °F 53% 30.04 in 10.0 mi North 6.9 mph - N/A   Scattered Clouds
5:35 PM 79.7 °F - 61.9 °F 54% 30.03 in 10.0 mi NNW 6.9 mph - N/A   Scattered Clouds
5:55 PM 78.4 °F - 61.7 °F 56% 30.04 in 10.0 mi NNW 5.8 mph - N/A   Scattered Clouds
6:15 PM 78.8 °F - 61.0 °F 54% 30.04 in 10.0 mi NNW 5.8 mph - N/A   Scattered Clouds
6:35 PM 79.0 °F - 56.1 °F 45% 30.04 in 10.0 mi NNW 8.1 mph - N/A   Clear
6:55 PM 78.8 °F - 57.2 °F 47% 30.04 in 10.0 mi NNW 8.1 mph - N/A   Clear
7:15 PM 77.9 °F - 58.1 °F 50% 30.04 in 10.0 mi North 6.9 mph - N/A   Clear
7:35 PM 76.5 °F - 59.5 °F 56% 30.05 in 10.0 mi North 9.2 mph 17.3 mph N/A   Clear
7:55 PM 75.2 °F - 59.0 °F 57% 30.05 in 10.0 mi North 11.5 mph - N/A   Clear
8:15 PM 73.6 °F - 58.8 °F 60% 30.06 in 10.0 mi North 5.8 mph - N/A   Clear
8:35 PM 72.0 °F - 56.5 °F 58% 30.06 in 10.0 mi North 4.6 mph - N/A   Clear
8:55 PM 70.0 °F - 56.3 °F 62% 30.07 in 10.0 mi North 5.8 mph - N/A   Clear
9:15 PM 68.0 °F - 56.7 °F 67% 30.07 in 10.0 mi North 4.6 mph - N/A   Clear
9:35 PM 66.9 °F - 55.9 °F 68% 30.07 in 10.0 mi North 4.6 mph - N/A   Clear
9:55 PM 66.6 °F - 55.2 °F 67% 30.08 in 10.0 mi North 5.8 mph - N/A   Clear
10:15 PM 65.5 °F - 54.9 °F 68% 30.09 in 10.0 mi North 5.8 mph - N/A   Clear
10:35 PM 64.4 °F - 54.7 °F 71% 30.10 in 10.0 mi North 4.6 mph - N/A   Clear
10:55 PM 62.6 °F - 55.4 °F 77% 30.10 in 10.0 mi North 3.5 mph - N/A   Clear
11:15 PM 61.7 °F - 55.0 °F 79% 30.10 in 10.0 mi North 4.6 mph - N/A   Clear
11:35 PM 61.5 °F - 54.1 °F 77% 30.11 in 10.0 mi North 4.6 mph - N/A   Clear
11:55 PM 61.3 °F - 54.1 °F 77% 30.11 in 10.0 mi North 4.6 mph - N/A   Mostly Cloudy